Powrót do katalogu

SL-12 R/B(2)

AktywnyMEO
NORAD 29673·ROCKET BODY·🇷🇺 Russia

Wystrzelony Dec 25, 2006 z Baikonur Cosmodrome

Loading…

Następne Przeloty (najbliższe 24 godziny)

TLE

ŚwieżeSource: Space-Track

Epoka: Sep 14, 2026, 18:42 UTC

1 29673U 06062D   26257.77967141  .00000021  00000-0  00000-0 0  9998
2 29673  64.7058 190.6336 0028582 193.7138 174.4850  2.13404161153903

Śledź SL-12 R/B(2) w czasie rzeczywistym z AllMySat

Download on the App Store